Find Starlink 5798

NORAD ID: 56040 Int'l Des: 2023-042 Owner: SPXS Country: US Constellation: starlink operational
LEOCIRCULAR

实时位置

正在加载3D地球...

关于 Starlink 5798

正在加载描述...

即将过境

Passes for default location (London). Set your location on the main map for personalized predictions.

高度历史

Loading altitude history...

两行轨道根数

1 56040U 23042BG 26106.51456551 .00000163 00000-0 15454-4 0 9996
2 56040 43.0030 177.4076 0001669 274.4400 85.6261 15.27578172168987
Epoch: Apr 16, 2026 • Age: 14 hours

当前状态

高度 484.8 km
速度 7.62 km/s
星下点 -12.46°S, 80.66°W
发射日期 Mar 24, 2023
运行时间 3 years
类型 internet

技术详情

分类 Payload
质量 305.00 kg
干质量 290.00 kg
总质量 305.00 kg
长度 0.20 m
直径 2.80 m
跨度 9.00 m
形状 Box + pan
制造商 SPXS
平台类型 Starlink
阶段状态 In Orbit
所有者/国家 SPXS/US

Most Searched